Data supplied by UK-AIR on 28/9/2011
All Data GMT hour ending 
Status: R =Ratified P=Provisional,P*=As supplied
,,Aberdeen Union Street Roadside,,,,,,,,,,,,,,,,,,,,,,,
Date,time,"Nitric oxide",status,unit,"Nitrogen dioxide",status,unit,"Nitrogen oxides as nitrogen dioxide",status,unit
 
01-01-2010,01:00,21,R,ugm-3,,,,,,
01-01-2010,02:00,20,R,ugm-3,,,,,,
01-01-2010,03:00,20,R,ugm-3,,,,,,
01-01-2010,04:00,20,R,ugm-3,,,,,,
01-01-2010,05:00,14,R,ugm-3,,,,,,
01-01-2010,06:00,14,R,ugm-3,,,,,,
01-01-2010,07:00,8,R,ugm-3,,,,,,
01-01-2010,08:00,5,R,ugm-3,,,,,,
01-01-2010,09:00,4,R,ugm-3,,,,,,
01-01-2010,10:00,5,R,ugm-3,,,,,,
01-01-2010,11:00,6,R,ugm-3,,,,,,
01-01-2010,12:00,9,R,ugm-3,,,,,,
01-01-2010,13:00,11,R,ugm-3,,,,,,
01-01-2010,14:00,11,R,ugm-3,,,,,,
01-01-2010,15:00,8,R,ugm-3,,,,,,
01-01-2010,16:00,9,R,ugm-3,,,,,,
01-01-2010,17:00,9,R,ugm-3,,,,,,
01-01-2010,18:00,6,R,ugm-3,,,,,,
01-01-2010,19:00,5,R,ugm-3,,,,,,
01-01-2010,20:00,10,R,ugm-3,,,,,,
01-01-2010,21:00,16,R,ugm-3,,,,,,
01-01-2010,22:00,9,R,ugm-3,,,,,,
01-01-2010,23:00,6,R,ugm-3,,,,,,
01-01-2010,24:00,5,R,ugm-3,,,,,,
02-01-2010,01:00,5,R,ugm-3,,,,,,
02-01-2010,02:00,6,R,ugm-3,,,,,,
02-01-2010,03:00,5,R,ugm-3,,,,,,
02-01-2010,04:00,4,R,ugm-3,,,,,,
02-01-2010,05:00,6,R,ugm-3,,,,,,
02-01-2010,06:00,14,R,ugm-3,,,,,,
02-01-2010,07:00,21,R,ugm-3,,,,,,
02-01-2010,08:00,34,R,ugm-3,,,,,,
02-01-2010,09:00,48,R,ugm-3,,,,,,
02-01-2010,10:00,34,R,ugm-3,,,,,,
02-01-2010,11:00,41,R,ugm-3,,,,,,
02-01-2010,12:00,61,R,ugm-3,,,,,,
02-01-2010,13:00,49,R,ugm-3,,,,,,
02-01-2010,14:00,51,R,ugm-3,,,,,,
02-01-2010,15:00,48,R,ugm-3,,,,,,
02-01-2010,16:00,59,R,ugm-3,,,,,,
02-01-2010,17:00,50,R,ugm-3,,,,,,
02-01-2010,18:00,75,R,ugm-3,,,,,,
02-01-2010,19:00,74,R,ugm-3,,,,,,
02-01-2010,20:00,101,R,ugm-3,,,,,,
02-01-2010,21:00,55,R,ugm-3,,,,,,
02-01-2010,22:00,78,R,ugm-3,,,,,,
02-01-2010,23:00,78,R,ugm-3,,,,,,
02-01-2010,24:00,66,R,ugm-3,,,,,,
03-01-2010,01:00,40,R,ugm-3,,,,,,
03-01-2010,02:00,34,R,ugm-3,,,,,,
03-01-2010,03:00,23,R,ugm-3,,,,,,
03-01-2010,04:00,11,R,ugm-3,,,,,,
03-01-2010,05:00,6,R,ugm-3,,,,,,
03-01-2010,06:00,9,R,ugm-3,,,,,,
03-01-2010,07:00,16,R,ugm-3,,,,,,
03-01-2010,08:00,21,R,ugm-3,,,,,,
03-01-2010,09:00,33,R,ugm-3,,,,,,
03-01-2010,10:00,38,R,ugm-3,,,,,,
03-01-2010,11:00,78,R,ugm-3,,,,,,
03-01-2010,12:00,90,R,ugm-3,,,,,,
03-01-2010,13:00,108,R,ugm-3,,,,,,
03-01-2010,14:00,75,R,ugm-3,,,,,,
03-01-2010,15:00,55,R,ugm-3,,,,,,
03-01-2010,16:00,121,R,ugm-3,,,,,,
03-01-2010,17:00,120,R,ugm-3,,,,,,
03-01-2010,18:00,89,R,ugm-3,,,,,,
03-01-2010,19:00,84,R,ugm-3,,,,,,
03-01-2010,20:00,54,R,ugm-3,,,,,,
03-01-2010,21:00,56,R,ugm-3,,,,,,
03-01-2010,22:00,61,R,ugm-3,,,,,,
03-01-2010,23:00,50,R,ugm-3,,,,,,
03-01-2010,24:00,34,R,ugm-3,,,,,,
04-01-2010,01:00,8,R,ugm-3,,,,,,
04-01-2010,02:00,4,R,ugm-3,,,,,,
04-01-2010,03:00,8,R,ugm-3,,,,,,
04-01-2010,04:00,4,R,ugm-3,,,,,,
04-01-2010,05:00,3,R,ugm-3,,,,,,
04-01-2010,06:00,5,R,ugm-3,,,,,,
04-01-2010,07:00,50,R,ugm-3,,,,,,
04-01-2010,08:00,156,R,ugm-3,,,,,,
04-01-2010,09:00,160,R,ugm-3,,,,,,
04-01-2010,10:00,133,R,ugm-3,,,,,,
04-01-2010,11:00,160,R,ugm-3,,,,,,
04-01-2010,12:00,155,R,ugm-3,,,,,,
04-01-2010,13:00,153,R,ugm-3,,,,,,
04-01-2010,14:00,166,R,ugm-3,,,,,,
04-01-2010,15:00,158,R,ugm-3,,,,,,
04-01-2010,16:00,170,R,ugm-3,,,,,,
04-01-2010,17:00,140,R,ugm-3,,,,,,
04-01-2010,18:00,95,R,ugm-3,,,,,,
04-01-2010,19:00,39,R,ugm-3,,,,,,
04-01-2010,20:00,56,R,ugm-3,,,,,,
04-01-2010,21:00,43,R,ugm-3,,,,,,
04-01-2010,22:00,34,R,ugm-3,,,,,,
04-01-2010,23:00,25,R,ugm-3,,,,,,
04-01-2010,24:00,43,R,ugm-3,,,,,,
05-01-2010,01:00,18,R,ugm-3,,,,,,
05-01-2010,02:00,1,R,ugm-3,,,,,,
05-01-2010,03:00,5,R,ugm-3,,,,,,
05-01-2010,04:00,3,R,ugm-3,,,,,,
05-01-2010,05:00,1,R,ugm-3,,,,,,
05-01-2010,06:00,6,R,ugm-3,,,,,,
05-01-2010,07:00,40,R,ugm-3,,,,,,
05-01-2010,08:00,101,R,ugm-3,,,,,,
05-01-2010,09:00,95,R,ugm-3,,,,,,
05-01-2010,10:00,115,R,ugm-3,,,,,,
05-01-2010,11:00,136,R,ugm-3,,,,,,
05-01-2010,12:00,121,R,ugm-3,,,,,,
05-01-2010,13:00,158,R,ugm-3,,,,,,
05-01-2010,14:00,121,R,ugm-3,,,,,,
05-01-2010,15:00,130,R,ugm-3,,,,,,
05-01-2010,16:00,86,R,ugm-3,,,,,,
05-01-2010,17:00,78,R,ugm-3,,,,,,
05-01-2010,18:00,86,R,ugm-3,,,,,,
05-01-2010,19:00,54,R,ugm-3,,,,,,
05-01-2010,20:00,20,R,ugm-3,,,,,,
05-01-2010,21:00,8,R,ugm-3,,,,,,
05-01-2010,22:00,6,R,ugm-3,,,,,,
05-01-2010,23:00,6,R,ugm-3,,,,,,
05-01-2010,24:00,4,R,ugm-3,,,,,,
06-01-2010,01:00,4,R,ugm-3,,,,,,
06-01-2010,02:00,4,R,ugm-3,,,,,,
06-01-2010,03:00,3,R,ugm-3,,,,,,
06-01-2010,04:00,3,R,ugm-3,,,,,,
06-01-2010,05:00,3,R,ugm-3,,,,,,
06-01-2010,06:00,5,R,ugm-3,,,,,,
06-01-2010,07:00,45,R,ugm-3,,,,,,
06-01-2010,08:00,183,R,ugm-3,,,,,,
06-01-2010,09:00,268,R,ugm-3,,,,,,
06-01-2010,10:00,280,R,ugm-3,,,,,,
06-01-2010,11:00,248,R,ugm-3,,,,,,
06-01-2010,12:00,118,R,ugm-3,,,,,,
06-01-2010,13:00,,,,,,,,,
06-01-2010,14:00,236,R,ugm-3,,,,,,
06-01-2010,15:00,155,R,ugm-3,,,,,,
06-01-2010,16:00,198,R,ugm-3,,,,,,
06-01-2010,17:00,185,R,ugm-3,,,,,,
06-01-2010,18:00,165,R,ugm-3,,,,,,
06-01-2010,19:00,179,R,ugm-3,,,,,,
06-01-2010,20:00,109,R,ugm-3,,,,,,
06-01-2010,21:00,78,R,ugm-3,,,,,,
06-01-2010,22:00,80,R,ugm-3,,,,,,
06-01-2010,23:00,53,R,ugm-3,,,,,,
06-01-2010,24:00,24,R,ugm-3,,,,,,
07-01-2010,01:00,13,R,ugm-3,,,,,,
07-01-2010,02:00,3,R,ugm-3,,,,,,
07-01-2010,03:00,5,R,ugm-3,,,,,,
07-01-2010,04:00,5,R,ugm-3,,,,,,
07-01-2010,05:00,10,R,ugm-3,,,,,,
07-01-2010,06:00,16,R,ugm-3,,,,,,
07-01-2010,07:00,43,R,ugm-3,,,,,,
07-01-2010,08:00,144,R,ugm-3,,,,,,
07-01-2010,09:00,225,R,ugm-3,,,,,,
07-01-2010,10:00,233,R,ugm-3,,,,,,
07-01-2010,11:00,201,R,ugm-3,,,,,,
07-01-2010,12:00,223,R,ugm-3,,,,,,
07-01-2010,13:00,143,R,ugm-3,,,,,,
07-01-2010,14:00,184,R,ugm-3,,,,,,
07-01-2010,15:00,133,R,ugm-3,,,,,,
07-01-2010,16:00,160,R,ugm-3,,,,,,
07-01-2010,17:00,205,R,ugm-3,,,,,,
07-01-2010,18:00,244,R,ugm-3,,,,,,
07-01-2010,19:00,243,R,ugm-3,,,,,,
07-01-2010,20:00,219,R,ugm-3,,,,,,
07-01-2010,21:00,154,R,ugm-3,,,,,,
07-01-2010,22:00,110,R,ugm-3,,,,,,
07-01-2010,23:00,91,R,ugm-3,,,,,,
07-01-2010,24:00,46,R,ugm-3,,,,,,
08-01-2010,01:00,18,R,ugm-3,,,,,,
08-01-2010,02:00,4,R,ugm-3,,,,,,
08-01-2010,03:00,4,R,ugm-3,,,,,,
08-01-2010,04:00,1,R,ugm-3,,,,,,
08-01-2010,05:00,1,R,ugm-3,,,,,,
08-01-2010,06:00,9,R,ugm-3,,,,,,
08-01-2010,07:00,48,R,ugm-3,,,,,,
08-01-2010,08:00,141,R,ugm-3,,,,,,
08-01-2010,09:00,233,R,ugm-3,,,,,,
08-01-2010,10:00,240,R,ugm-3,,,,,,
08-01-2010,11:00,189,R,ugm-3,,,,,,
08-01-2010,12:00,179,R,ugm-3,,,,,,
08-01-2010,13:00,131,R,ugm-3,,,,,,
08-01-2010,14:00,133,R,ugm-3,,,,,,
08-01-2010,15:00,120,R,ugm-3,,,,,,
08-01-2010,16:00,151,R,ugm-3,,,,,,
08-01-2010,17:00,219,R,ugm-3,,,,,,
08-01-2010,18:00,246,R,ugm-3,,,,,,
08-01-2010,19:00,121,R,ugm-3,,,,,,
08-01-2010,20:00,94,R,ugm-3,,,,,,
08-01-2010,21:00,105,R,ugm-3,,,,,,
08-01-2010,22:00,66,R,ugm-3,,,,,,
08-01-2010,23:00,68,R,ugm-3,,,,,,
08-01-2010,24:00,64,R,ugm-3,,,,,,
09-01-2010,01:00,66,R,ugm-3,,,,,,
09-01-2010,02:00,48,R,ugm-3,,,,,,
09-01-2010,03:00,76,R,ugm-3,,,,,,
09-01-2010,04:00,73,R,ugm-3,,,,,,
09-01-2010,05:00,61,R,ugm-3,,,,,,
09-01-2010,06:00,26,R,ugm-3,,,,,,
09-01-2010,07:00,55,R,ugm-3,,,,,,
09-01-2010,08:00,159,R,ugm-3,,,,,,
09-01-2010,09:00,216,R,ugm-3,,,,,,
09-01-2010,10:00,196,R,ugm-3,,,,,,
09-01-2010,11:00,191,R,ugm-3,,,,,,
09-01-2010,12:00,76,R,ugm-3,,,,,,
09-01-2010,13:00,28,R,ugm-3,,,,,,
09-01-2010,14:00,61,R,ugm-3,,,,,,
09-01-2010,15:00,179,R,ugm-3,,,,,,
09-01-2010,16:00,159,R,ugm-3,,,,,,
09-01-2010,17:00,90,R,ugm-3,,,,,,
09-01-2010,18:00,86,R,ugm-3,,,,,,
09-01-2010,19:00,108,R,ugm-3,,,,,,
09-01-2010,20:00,90,R,ugm-3,,,,,,
09-01-2010,21:00,101,R,ugm-3,,,,,,
09-01-2010,22:00,95,R,ugm-3,,,,,,
09-01-2010,23:00,78,R,ugm-3,,,,,,
09-01-2010,24:00,48,R,ugm-3,,,,,,
10-01-2010,01:00,28,R,ugm-3,,,,,,
10-01-2010,02:00,45,R,ugm-3,,,,,,
10-01-2010,03:00,31,R,ugm-3,,,,,,
10-01-2010,04:00,24,R,ugm-3,,,,,,
10-01-2010,05:00,14,R,ugm-3,,,,,,
10-01-2010,06:00,10,R,ugm-3,,,,,,
10-01-2010,07:00,5,R,ugm-3,,,,,,
10-01-2010,08:00,6,R,ugm-3,,,,,,
10-01-2010,09:00,14,R,ugm-3,,,,,,
10-01-2010,10:00,28,R,ugm-3,,,,,,
10-01-2010,11:00,28,R,ugm-3,,,,,,
10-01-2010,12:00,28,R,ugm-3,,,,,,
10-01-2010,13:00,41,R,ugm-3,,,,,,
10-01-2010,14:00,29,R,ugm-3,,,,,,
10-01-2010,15:00,34,R,ugm-3,,,,,,
10-01-2010,16:00,38,R,ugm-3,,,,,,
10-01-2010,17:00,24,R,ugm-3,,,,,,
10-01-2010,18:00,19,R,ugm-3,,,,,,
10-01-2010,19:00,18,R,ugm-3,,,,,,
10-01-2010,20:00,13,R,ugm-3,,,,,,
10-01-2010,21:00,9,R,ugm-3,,,,,,
10-01-2010,22:00,15,R,ugm-3,,,,,,
10-01-2010,23:00,10,R,ugm-3,,,,,,
10-01-2010,24:00,6,R,ugm-3,,,,,,
11-01-2010,01:00,1,R,ugm-3,,,,,,
11-01-2010,02:00,13,R,ugm-3,,,,,,
11-01-2010,03:00,18,R,ugm-3,,,,,,
11-01-2010,04:00,21,R,ugm-3,,,,,,
11-01-2010,05:00,26,R,ugm-3,,,,,,
11-01-2010,06:00,23,R,ugm-3,,,,,,
11-01-2010,07:00,26,R,ugm-3,,,,,,
11-01-2010,08:00,51,R,ugm-3,,,,,,
11-01-2010,09:00,70,R,ugm-3,,,,,,
11-01-2010,10:00,80,R,ugm-3,,,,,,
11-01-2010,11:00,94,R,ugm-3,,,,,,
11-01-2010,12:00,73,R,ugm-3,,,,,,
11-01-2010,13:00,75,R,ugm-3,,,,,,
11-01-2010,14:00,70,R,ugm-3,,,,,,
11-01-2010,15:00,60,R,ugm-3,,,,,,
11-01-2010,16:00,75,R,ugm-3,,,,,,
11-01-2010,17:00,91,R,ugm-3,,,,,,
11-01-2010,18:00,74,R,ugm-3,,,,,,
11-01-2010,19:00,80,R,ugm-3,,,,,,
11-01-2010,20:00,59,R,ugm-3,,,,,,
11-01-2010,21:00,39,R,ugm-3,,,,,,
11-01-2010,22:00,20,R,ugm-3,,,,,,
11-01-2010,23:00,8,R,ugm-3,,,,,,
11-01-2010,24:00,1,R,ugm-3,,,,,,
12-01-2010,01:00,1,R,ugm-3,,,,,,
12-01-2010,02:00,1,R,ugm-3,,,,,,
12-01-2010,03:00,1,R,ugm-3,,,,,,
12-01-2010,04:00,1,R,ugm-3,,,,,,
12-01-2010,05:00,0,R,ugm-3,,,,,,
12-01-2010,06:00,3,R,ugm-3,,,,,,
12-01-2010,07:00,8,R,ugm-3,,,,,,
12-01-2010,08:00,21,R,ugm-3,,,,,,
12-01-2010,09:00,24,R,ugm-3,,,,,,
12-01-2010,10:00,35,R,ugm-3,,,,,,
12-01-2010,11:00,23,R,ugm-3,,,,,,
12-01-2010,12:00,16,R,ugm-3,,,,,,
12-01-2010,13:00,13,R,ugm-3,,,,,,
12-01-2010,14:00,15,R,ugm-3,,,,,,
12-01-2010,15:00,16,R,ugm-3,,,,,,
12-01-2010,16:00,19,R,ugm-3,,,,,,
12-01-2010,17:00,15,R,ugm-3,,,,,,
12-01-2010,18:00,15,R,ugm-3,,,,,,
12-01-2010,19:00,11,R,ugm-3,,,,,,
12-01-2010,20:00,6,R,ugm-3,,,,,,
12-01-2010,21:00,3,R,ugm-3,,,,,,
12-01-2010,22:00,4,R,ugm-3,,,,,,
12-01-2010,23:00,3,R,ugm-3,,,,,,
12-01-2010,24:00,3,R,ugm-3,,,,,,
13-01-2010,01:00,1,R,ugm-3,,,,,,
13-01-2010,02:00,1,R,ugm-3,,,,,,
13-01-2010,03:00,1,R,ugm-3,,,,,,
13-01-2010,04:00,1,R,ugm-3,,,,,,
13-01-2010,05:00,1,R,ugm-3,,,,,,
13-01-2010,06:00,4,R,ugm-3,,,,,,
13-01-2010,07:00,11,R,ugm-3,,,,,,
13-01-2010,08:00,19,R,ugm-3,,,,,,
13-01-2010,09:00,29,R,ugm-3,,,,,,
13-01-2010,10:00,23,R,ugm-3,,,,,,
13-01-2010,11:00,21,R,ugm-3,,,,,,
13-01-2010,12:00,19,R,ugm-3,,,,,,
13-01-2010,13:00,15,R,ugm-3,,,,,,
13-01-2010,14:00,19,R,ugm-3,,,,,,
13-01-2010,15:00,16,R,ugm-3,,,,,,
13-01-2010,16:00,18,R,ugm-3,,,,,,
13-01-2010,17:00,16,R,ugm-3,,,,,,
13-01-2010,18:00,15,R,ugm-3,,,,,,
13-01-2010,19:00,13,R,ugm-3,,,,,,
13-01-2010,20:00,10,R,ugm-3,,,,,,
13-01-2010,21:00,5,R,ugm-3,,,,,,
13-01-2010,22:00,10,R,ugm-3,,,,,,
13-01-2010,23:00,8,R,ugm-3,,,,,,
13-01-2010,24:00,4,R,ugm-3,,,,,,
14-01-2010,01:00,1,R,ugm-3,,,,,,
14-01-2010,02:00,1,R,ugm-3,,,,,,
14-01-2010,03:00,1,R,ugm-3,,,,,,
14-01-2010,04:00,1,R,ugm-3,,,,,,
14-01-2010,05:00,3,R,ugm-3,,,,,,
14-01-2010,06:00,4,R,ugm-3,,,,,,
14-01-2010,07:00,13,R,ugm-3,,,,,,
14-01-2010,08:00,34,R,ugm-3,,,,,,
14-01-2010,09:00,61,R,ugm-3,,,,,,
14-01-2010,10:00,51,R,ugm-3,,,,,,
14-01-2010,11:00,48,R,ugm-3,,,,,,
14-01-2010,12:00,56,R,ugm-3,,,,,,
14-01-2010,13:00,73,R,ugm-3,,,,,,
14-01-2010,14:00,56,R,ugm-3,,,,,,
14-01-2010,15:00,60,R,ugm-3,,,,,,
14-01-2010,16:00,74,R,ugm-3,,,,,,
14-01-2010,17:00,94,R,ugm-3,,,,,,
14-01-2010,18:00,88,R,ugm-3,,,,,,
14-01-2010,19:00,63,R,ugm-3,,,,,,
14-01-2010,20:00,51,R,ugm-3,,,,,,
14-01-2010,21:00,44,R,ugm-3,,,,,,
14-01-2010,22:00,40,R,ugm-3,,,,,,
14-01-2010,23:00,20,R,ugm-3,,,,,,
14-01-2010,24:00,18,R,ugm-3,,,,,,
15-01-2010,01:00,13,R,ugm-3,,,,,,
15-01-2010,02:00,3,R,ugm-3,,,,,,
15-01-2010,03:00,3,R,ugm-3,,,,,,
15-01-2010,04:00,1,R,ugm-3,,,,,,
15-01-2010,05:00,3,R,ugm-3,,,,,,
15-01-2010,06:00,4,R,ugm-3,,,,,,
15-01-2010,07:00,6,R,ugm-3,,,,,,
15-01-2010,08:00,11,R,ugm-3,,,,,,
15-01-2010,09:00,14,R,ugm-3,,,,,,
15-01-2010,10:00,15,R,ugm-3,,,,,,
15-01-2010,11:00,11,R,ugm-3,,,,,,
15-01-2010,12:00,11,R,ugm-3,,,,,,
15-01-2010,13:00,13,R,ugm-3,,,,,,
15-01-2010,14:00,19,R,ugm-3,,,,,,
15-01-2010,15:00,20,R,ugm-3,,,,,,
15-01-2010,16:00,21,R,ugm-3,,,,,,
15-01-2010,17:00,21,R,ugm-3,,,,,,
15-01-2010,18:00,29,R,ugm-3,,,,,,
15-01-2010,19:00,23,R,ugm-3,,,,,,
15-01-2010,20:00,15,R,ugm-3,,,,,,
15-01-2010,21:00,10,R,ugm-3,,,,,,
15-01-2010,22:00,6,R,ugm-3,,,,,,
15-01-2010,23:00,6,R,ugm-3,,,,,,
15-01-2010,24:00,6,R,ugm-3,,,,,,
16-01-2010,01:00,4,R,ugm-3,,,,,,
16-01-2010,02:00,3,R,ugm-3,,,,,,
16-01-2010,03:00,3,R,ugm-3,,,,,,
16-01-2010,04:00,1,R,ugm-3,,,,,,
16-01-2010,05:00,1,R,ugm-3,,,,,,
16-01-2010,06:00,1,R,ugm-3,,,,,,
16-01-2010,07:00,3,R,ugm-3,,,,,,
16-01-2010,08:00,3,R,ugm-3,,,,,,
16-01-2010,09:00,3,R,ugm-3,,,,,,
16-01-2010,10:00,4,R,ugm-3,,,,,,
16-01-2010,11:00,5,R,ugm-3,,,,,,
16-01-2010,12:00,5,R,ugm-3,,,,,,
16-01-2010,13:00,8,R,ugm-3,,,,,,
16-01-2010,14:00,9,R,ugm-3,,,,,,
16-01-2010,15:00,11,R,ugm-3,,,,,,
16-01-2010,16:00,16,R,ugm-3,,,,,,
16-01-2010,17:00,21,R,ugm-3,,,,,,
16-01-2010,18:00,24,R,ugm-3,,,,,,
16-01-2010,19:00,36,R,ugm-3,,,,,,
16-01-2010,20:00,24,R,ugm-3,,,,,,
16-01-2010,21:00,21,R,ugm-3,,,,,,
16-01-2010,22:00,18,R,ugm-3,,,,,,
16-01-2010,23:00,23,R,ugm-3,,,,,,
16-01-2010,24:00,59,R,ugm-3,,,,,,
17-01-2010,01:00,56,R,ugm-3,,,,,,
17-01-2010,02:00,36,R,ugm-3,,,,,,
17-01-2010,03:00,41,R,ugm-3,,,,,,
17-01-2010,04:00,29,R,ugm-3,,,,,,
17-01-2010,05:00,6,R,ugm-3,,,,,,
17-01-2010,06:00,4,R,ugm-3,,,,,,
17-01-2010,07:00,5,R,ugm-3,,,,,,
17-01-2010,08:00,6,R,ugm-3,,,,,,
17-01-2010,09:00,8,R,ugm-3,,,,,,
17-01-2010,10:00,14,R,ugm-3,,,,,,
17-01-2010,11:00,50,R,ugm-3,,,,,,
17-01-2010,12:00,84,R,ugm-3,,,,,,
17-01-2010,13:00,69,R,ugm-3,,,,,,
17-01-2010,14:00,59,R,ugm-3,,,,,,
17-01-2010,15:00,49,R,ugm-3,,,,,,
17-01-2010,16:00,30,R,ugm-3,,,,,,
17-01-2010,17:00,40,R,ugm-3,,,,,,
17-01-2010,18:00,18,R,ugm-3,,,,,,
17-01-2010,19:00,19,R,ugm-3,,,,,,
17-01-2010,20:00,21,R,ugm-3,,,,,,
17-01-2010,21:00,18,R,ugm-3,,,,,,
17-01-2010,22:00,6,R,ugm-3,,,,,,
17-01-2010,23:00,9,R,ugm-3,,,,,,
17-01-2010,24:00,4,R,ugm-3,,,,,,
18-01-2010,01:00,3,R,ugm-3,,,,,,
18-01-2010,02:00,1,R,ugm-3,,,,,,
18-01-2010,03:00,0,R,ugm-3,,,,,,
18-01-2010,04:00,1,R,ugm-3,,,,,,
18-01-2010,05:00,3,R,ugm-3,,,,,,
18-01-2010,06:00,34,R,ugm-3,,,,,,
18-01-2010,07:00,118,R,ugm-3,,,,,,
18-01-2010,08:00,185,R,ugm-3,,,,,,
18-01-2010,09:00,239,R,ugm-3,,,,,,
18-01-2010,10:00,218,R,ugm-3,,,,,,
18-01-2010,11:00,201,R,ugm-3,,,,,,
18-01-2010,12:00,203,R,ugm-3,,,,,,
18-01-2010,13:00,183,R,ugm-3,,,,,,
18-01-2010,14:00,199,R,ugm-3,,,,,,
18-01-2010,15:00,173,R,ugm-3,,,,,,
18-01-2010,16:00,159,R,ugm-3,,,,,,
18-01-2010,17:00,205,R,ugm-3,,,,,,
18-01-2010,18:00,311,R,ugm-3,,,,,,
18-01-2010,19:00,225,R,ugm-3,,,,,,
18-01-2010,20:00,146,R,ugm-3,,,,,,
18-01-2010,21:00,100,R,ugm-3,,,,,,
18-01-2010,22:00,104,R,ugm-3,,,,,,
18-01-2010,23:00,76,R,ugm-3,,,,,,
18-01-2010,24:00,58,R,ugm-3,,,,,,
19-01-2010,01:00,16,R,ugm-3,,,,,,
19-01-2010,02:00,4,R,ugm-3,,,,,,
19-01-2010,03:00,8,R,ugm-3,,,,,,
19-01-2010,04:00,8,R,ugm-3,,,,,,
19-01-2010,05:00,8,R,ugm-3,,,,,,
19-01-2010,06:00,21,R,ugm-3,,,,,,
19-01-2010,07:00,,,,,,,,,
19-01-2010,08:00,,,,,,,,,
19-01-2010,09:00,359,R,ugm-3,,,,,,
19-01-2010,10:00,420,R,ugm-3,,,,,,
19-01-2010,11:00,509,R,ugm-3,,,,,,
19-01-2010,12:00,220,R,ugm-3,,,,,,
19-01-2010,13:00,40,R,ugm-3,,,,,,
19-01-2010,14:00,30,R,ugm-3,,,,,,
19-01-2010,15:00,19,R,ugm-3,,,,,,
19-01-2010,16:00,14,R,ugm-3,,,,,,
19-01-2010,17:00,14,R,ugm-3,,,,,,
19-01-2010,18:00,18,R,ugm-3,,,,,,
19-01-2010,19:00,9,R,ugm-3,,,,,,
19-01-2010,20:00,5,R,ugm-3,,,,,,
19-01-2010,21:00,4,R,ugm-3,,,,,,
19-01-2010,22:00,,,,,,,,,
19-01-2010,23:00,,,,,,,,,
19-01-2010,24:00,,,,,,,,,
20-01-2010,01:00,1,R,ugm-3,,,,,,
20-01-2010,02:00,0,R,ugm-3,,,,,,
20-01-2010,03:00,0,R,ugm-3,,,,,,
20-01-2010,04:00,0,R,ugm-3,,,,,,
20-01-2010,05:00,0,R,ugm-3,,,,,,
20-01-2010,06:00,1,R,ugm-3,,,,,,
20-01-2010,07:00,6,R,ugm-3,,,,,,
20-01-2010,08:00,11,R,ugm-3,,,,,,
20-01-2010,09:00,15,R,ugm-3,,,,,,
20-01-2010,10:00,14,R,ugm-3,,,,,,
20-01-2010,11:00,15,R,ugm-3,,,,,,
20-01-2010,12:00,18,R,ugm-3,,,,,,
20-01-2010,13:00,18,R,ugm-3,,,,,,
20-01-2010,14:00,20,R,ugm-3,,,,,,
20-01-2010,15:00,16,R,ugm-3,,,,,,
20-01-2010,16:00,24,R,ugm-3,,,,,,
20-01-2010,17:00,36,R,ugm-3,,,,,,
20-01-2010,18:00,33,R,ugm-3,,,,,,
20-01-2010,19:00,16,R,ugm-3,,,,,,
20-01-2010,20:00,18,R,ugm-3,,,,,,
20-01-2010,21:00,9,R,ugm-3,,,,,,
20-01-2010,22:00,13,R,ugm-3,,,,,,
20-01-2010,23:00,6,R,ugm-3,,,,,,
20-01-2010,24:00,4,R,ugm-3,,,,,,
21-01-2010,01:00,3,R,ugm-3,,,,,,
21-01-2010,02:00,1,R,ugm-3,,,,,,
21-01-2010,03:00,1,R,ugm-3,,,,,,
21-01-2010,04:00,1,R,ugm-3,,,,,,
21-01-2010,05:00,1,R,ugm-3,,,,,,
21-01-2010,06:00,5,R,ugm-3,,,,,,
21-01-2010,07:00,9,R,ugm-3,,,,,,
21-01-2010,08:00,26,R,ugm-3,,,,,,
21-01-2010,09:00,30,R,ugm-3,,,,,,
21-01-2010,10:00,25,R,ugm-3,,,,,,
21-01-2010,11:00,33,R,ugm-3,,,,,,
21-01-2010,12:00,25,R,ugm-3,,,,,,
21-01-2010,13:00,15,R,ugm-3,,,,,,
21-01-2010,14:00,19,R,ugm-3,,,,,,
21-01-2010,15:00,16,R,ugm-3,,,,,,
21-01-2010,16:00,15,R,ugm-3,,,,,,
21-01-2010,17:00,18,R,ugm-3,,,,,,
21-01-2010,18:00,21,R,ugm-3,,,,,,
21-01-2010,19:00,14,R,ugm-3,,,,,,
21-01-2010,20:00,8,R,ugm-3,,,,,,
21-01-2010,21:00,4,R,ugm-3,,,,,,
21-01-2010,22:00,4,R,ugm-3,,,,,,
21-01-2010,23:00,4,R,ugm-3,,,,,,
21-01-2010,24:00,3,R,ugm-3,,,,,,
22-01-2010,01:00,1,R,ugm-3,,,,,,
22-01-2010,02:00,1,R,ugm-3,,,,,,
22-01-2010,03:00,1,R,ugm-3,,,,,,
22-01-2010,04:00,1,R,ugm-3,,,,,,
22-01-2010,05:00,1,R,ugm-3,,,,,,
22-01-2010,06:00,3,R,ugm-3,,,,,,
22-01-2010,07:00,6,R,ugm-3,,,,,,
22-01-2010,08:00,14,R,ugm-3,,,,,,
22-01-2010,09:00,21,R,ugm-3,,,,,,
22-01-2010,10:00,38,R,ugm-3,,,,,,
22-01-2010,11:00,64,R,ugm-3,,,,,,
22-01-2010,12:00,89,R,ugm-3,,,,,,
22-01-2010,13:00,108,R,ugm-3,,,,,,
22-01-2010,14:00,148,R,ugm-3,,,,,,
22-01-2010,15:00,216,R,ugm-3,,,,,,
22-01-2010,16:00,276,R,ugm-3,,,,,,
22-01-2010,17:00,381,R,ugm-3,,,,,,
22-01-2010,18:00,401,R,ugm-3,,,,,,
22-01-2010,19:00,393,R,ugm-3,,,,,,
22-01-2010,20:00,249,R,ugm-3,,,,,,
22-01-2010,21:00,175,R,ugm-3,,,,,,
22-01-2010,22:00,141,R,ugm-3,,,,,,
22-01-2010,23:00,113,R,ugm-3,,,,,,
22-01-2010,24:00,80,R,ugm-3,,,,,,
23-01-2010,01:00,76,R,ugm-3,,,,,,
23-01-2010,02:00,50,R,ugm-3,,,,,,
23-01-2010,03:00,51,R,ugm-3,,,,,,
23-01-2010,04:00,53,R,ugm-3,,,,,,
23-01-2010,05:00,38,R,ugm-3,,,,,,
23-01-2010,06:00,30,R,ugm-3,,,,,,
23-01-2010,07:00,49,R,ugm-3,,,,,,
23-01-2010,08:00,61,R,ugm-3,,,,,,
23-01-2010,09:00,65,R,ugm-3,,,,,,
23-01-2010,10:00,106,R,ugm-3,,,,,,
23-01-2010,11:00,153,R,ugm-3,,,,,,
23-01-2010,12:00,154,R,ugm-3,,,,,,
23-01-2010,13:00,141,R,ugm-3,,,,,,
23-01-2010,14:00,114,R,ugm-3,,,,,,
23-01-2010,15:00,98,R,ugm-3,,,,,,
23-01-2010,16:00,106,R,ugm-3,,,,,,
23-01-2010,17:00,91,R,ugm-3,,,,,,
23-01-2010,18:00,84,R,ugm-3,,,,,,
23-01-2010,19:00,80,R,ugm-3,,,,,,
23-01-2010,20:00,61,R,ugm-3,,,,,,
23-01-2010,21:00,48,R,ugm-3,,,,,,
23-01-2010,22:00,31,R,ugm-3,,,,,,
23-01-2010,23:00,30,R,ugm-3,,,,,,
23-01-2010,24:00,38,R,ugm-3,,,,,,
24-01-2010,01:00,23,R,ugm-3,,,,,,
24-01-2010,02:00,15,R,ugm-3,,,,,,
24-01-2010,03:00,23,R,ugm-3,,,,,,
24-01-2010,04:00,20,R,ugm-3,,,,,,
24-01-2010,05:00,29,R,ugm-3,,,,,,
24-01-2010,06:00,28,R,ugm-3,,,,,,
24-01-2010,07:00,21,R,ugm-3,,,,,,
24-01-2010,08:00,20,R,ugm-3,,,,,,
24-01-2010,09:00,13,R,ugm-3,,,,,,
24-01-2010,10:00,14,R,ugm-3,,,,,,
24-01-2010,11:00,15,R,ugm-3,,,,,,
24-01-2010,12:00,15,R,ugm-3,,,,,,
24-01-2010,13:00,13,R,ugm-3,,,,,,
24-01-2010,14:00,10,R,ugm-3,,,,,,
24-01-2010,15:00,10,R,ugm-3,,,,,,
24-01-2010,16:00,15,R,ugm-3,,,,,,
24-01-2010,17:00,16,R,ugm-3,,,,,,
24-01-2010,18:00,20,R,ugm-3,,,,,,
24-01-2010,19:00,19,R,ugm-3,,,,,,
24-01-2010,20:00,19,R,ugm-3,,,,,,
24-01-2010,21:00,24,R,ugm-3,,,,,,
24-01-2010,22:00,25,R,ugm-3,,,,,,
24-01-2010,23:00,23,R,ugm-3,,,,,,
24-01-2010,24:00,11,R,ugm-3,,,,,,
25-01-2010,01:00,5,R,ugm-3,,,,,,
25-01-2010,02:00,3,R,ugm-3,,,,,,
25-01-2010,03:00,4,R,ugm-3,,,,,,
25-01-2010,04:00,6,R,ugm-3,,,,,,
25-01-2010,05:00,5,R,ugm-3,,,,,,
25-01-2010,06:00,8,R,ugm-3,,,,,,
25-01-2010,07:00,58,R,ugm-3,,,,,,
25-01-2010,08:00,106,R,ugm-3,,,,,,
25-01-2010,09:00,76,R,ugm-3,,,,,,
25-01-2010,10:00,81,R,ugm-3,,,,,,
25-01-2010,11:00,45,R,ugm-3,,,,,,
25-01-2010,12:00,43,R,ugm-3,,,,,,
25-01-2010,13:00,54,R,ugm-3,,,,,,
25-01-2010,14:00,64,R,ugm-3,,,,,,
25-01-2010,15:00,94,R,ugm-3,,,,,,
25-01-2010,16:00,39,R,ugm-3,,,,,,
25-01-2010,17:00,43,R,ugm-3,,,,,,
25-01-2010,18:00,50,R,ugm-3,,,,,,
25-01-2010,19:00,46,R,ugm-3,,,,,,
25-01-2010,20:00,15,R,ugm-3,,,,,,
25-01-2010,21:00,6,R,ugm-3,,,,,,
25-01-2010,22:00,8,R,ugm-3,,,,,,
25-01-2010,23:00,4,R,ugm-3,,,,,,
25-01-2010,24:00,5,R,ugm-3,,,,,,
26-01-2010,01:00,3,R,ugm-3,,,,,,
26-01-2010,02:00,0,R,ugm-3,,,,,,
26-01-2010,03:00,0,R,ugm-3,,,,,,
26-01-2010,04:00,1,R,ugm-3,,,,,,
26-01-2010,05:00,1,R,ugm-3,,,,,,
26-01-2010,06:00,4,R,ugm-3,,,,,,
26-01-2010,07:00,13,R,ugm-3,,,,,,
26-01-2010,08:00,48,R,ugm-3,,,,,,
26-01-2010,09:00,80,R,ugm-3,,,,,,
26-01-2010,10:00,114,R,ugm-3,,,,,,
26-01-2010,11:00,106,R,ugm-3,,,,,,
26-01-2010,12:00,141,R,ugm-3,,,,,,
26-01-2010,13:00,114,R,ugm-3,,,,,,
26-01-2010,14:00,118,R,ugm-3,,,,,,
26-01-2010,15:00,126,R,ugm-3,,,,,,
26-01-2010,16:00,160,R,ugm-3,,,,,,
26-01-2010,17:00,214,R,ugm-3,,,,,,
26-01-2010,18:00,273,R,ugm-3,,,,,,
26-01-2010,19:00,265,R,ugm-3,,,,,,
26-01-2010,20:00,214,R,ugm-3,,,,,,
26-01-2010,21:00,135,R,ugm-3,,,,,,
26-01-2010,22:00,79,R,ugm-3,,,,,,
26-01-2010,23:00,71,R,ugm-3,,,,,,
26-01-2010,24:00,66,R,ugm-3,,,,,,
27-01-2010,01:00,33,R,ugm-3,,,,,,
27-01-2010,02:00,10,R,ugm-3,,,,,,
27-01-2010,03:00,23,R,ugm-3,,,,,,
27-01-2010,04:00,16,R,ugm-3,,,,,,
27-01-2010,05:00,5,R,ugm-3,,,,,,
27-01-2010,06:00,10,R,ugm-3,,,,,,
27-01-2010,07:00,49,R,ugm-3,,,,,,
27-01-2010,08:00,156,R,ugm-3,,,,,,
27-01-2010,09:00,,,,,,,,,
27-01-2010,10:00,,,,,,,,,
27-01-2010,11:00,,,,,,,,,
27-01-2010,12:00,,,,,,,,,
27-01-2010,13:00,,,,,,,,,
27-01-2010,14:00,,,,,,,,,
27-01-2010,15:00,,,,,,,,,
27-01-2010,16:00,,,,,,,,,
27-01-2010,17:00,,,,,,,,,
27-01-2010,18:00,,,,,,,,,
27-01-2010,19:00,,,,,,,,,
27-01-2010,20:00,,,,,,,,,
27-01-2010,21:00,,,,,,,,,
27-01-2010,22:00,,,,,,,,,
27-01-2010,23:00,,,,,,,,,
27-01-2010,24:00,,,,,,,,,
28-01-2010,01:00,,,,,,,,,
28-01-2010,02:00,,,,,,,,,
28-01-2010,03:00,,,,,,,,,
28-01-2010,04:00,,,,,,,,,
28-01-2010,05:00,,,,,,,,,
28-01-2010,06:00,,,,,,,,,
28-01-2010,07:00,,,,,,,,,
28-01-2010,08:00,,,,,,,,,
28-01-2010,09:00,,,,,,,,,
28-01-2010,10:00,,,,,,,,,
28-01-2010,11:00,,,,,,,,,
28-01-2010,12:00,,,,,,,,,
28-01-2010,13:00,,,,,,,,,
28-01-2010,14:00,,,,,,,,,
28-01-2010,15:00,,,,,,,,,
28-01-2010,16:00,,,,,,,,,
28-01-2010,17:00,,,,,,,,,
28-01-2010,18:00,,,,,,,,,
28-01-2010,19:00,,,,,,,,,
28-01-2010,20:00,,,,,,,,,
28-01-2010,21:00,,,,,,,,,
28-01-2010,22:00,,,,,,,,,
28-01-2010,23:00,,,,,,,,,
28-01-2010,24:00,,,,,,,,,
29-01-2010,01:00,,,,,,,,,
29-01-2010,02:00,,,,,,,,,
29-01-2010,03:00,,,,,,,,,
29-01-2010,04:00,,,,,,,,,
29-01-2010,05:00,,,,,,,,,
29-01-2010,06:00,,,,,,,,,
29-01-2010,07:00,,,,,,,,,
29-01-2010,08:00,,,,,,,,,
29-01-2010,09:00,,,,,,,,,
29-01-2010,10:00,,,,,,,,,
29-01-2010,11:00,,,,,,,,,
29-01-2010,12:00,,,,,,,,,
29-01-2010,13:00,,,,,,,,,
29-01-2010,14:00,,,,,,,,,
29-01-2010,15:00,,,,,,,,,
29-01-2010,16:00,,,,,,,,,
29-01-2010,17:00,,,,,,,,,
29-01-2010,18:00,,,,,,,,,
29-01-2010,19:00,,,,,,,,,
29-01-2010,20:00,,,,,,,,,
29-01-2010,21:00,,,,,,,,,
29-01-2010,22:00,,,,,,,,,
29-01-2010,23:00,,,,,,,,,
29-01-2010,24:00,,,,,,,,,
30-01-2010,01:00,,,,,,,,,
30-01-2010,02:00,,,,,,,,,
30-01-2010,03:00,,,,,,,,,
30-01-2010,04:00,,,,,,,,,
30-01-2010,05:00,,,,,,,,,
30-01-2010,06:00,,,,,,,,,
30-01-2010,07:00,,,,,,,,,
30-01-2010,08:00,,,,,,,,,
30-01-2010,09:00,,,,,,,,,
30-01-2010,10:00,,,,,,,,,
30-01-2010,11:00,,,,,,,,,
30-01-2010,12:00,,,,,,,,,
30-01-2010,13:00,,,,,,,,,
30-01-2010,14:00,,,,,,,,,
30-01-2010,15:00,,,,,,,,,
30-01-2010,16:00,,,,,,,,,
30-01-2010,17:00,,,,,,,,,
30-01-2010,18:00,,,,,,,,,
30-01-2010,19:00,,,,,,,,,
30-01-2010,20:00,,,,,,,,,
30-01-2010,21:00,,,,,,,,,
30-01-2010,22:00,,,,,,,,,
30-01-2010,23:00,,,,,,,,,
30-01-2010,24:00,,,,,,,,,
31-01-2010,01:00,,,,,,,,,